CZ-6A DEB, 54333

Orbit data source: Space-Track

CZ-6A DEB, 54333 is space debris in SSO originally from a launch on Fri, 11 Nov 2022 UTC launched from the Taiyaun Space Center, China (TSC). Debris objects in space refer to the collection of defunct objects orbiting the Earth. Examples of debris include non-operational satellites, rocket bodies, and fragments generated from explosions, collisions, or faulty payload assembly.

Loading next visibility...
Identifier
54333, 2022-151CC
Orbit
SSO
Country
Flag of CNCN / PRC
Related business
Manufacturer
SAST
Mission
Spacecraft
Bus & Motor
Unknown
Mass
Unknown
Launch date (UTC)
2022-11-11 (3 years ago)
Launch vehicle
Unknown
Launch site
Taiyaun Space Center, China (TSC)
Object type
Payload
Rocket body
Debris
Shape & HBR
Unknown shape, 0.1 m
Radar Cross Section
Small (<0.1 m²)

Expand to show TLE details & history
Last TLE update: 1 day ago

TLE from 1 day ago
0 CZ-6A DEB
1 54333U 22151CC  25353.15150495  .00046789  00000-0  33320-2 0  9994
2 54333  98.6487  69.1380 0043355  41.6376 318.8134 15.03673415164943
Epoch: 2025-12-19T03:38Z
TLE epoch observation values (Epoch: 2025-12-19T03:38:10.027Z)
Latitude
-0.00002°
Longitude
-73.40055°
Altitude
536.04 km
Speed
7.607 km/s
True Right ascension
04h 36m 33s
True Declination
0° 00' 00"
Sunlit
Object was in full shadow at epoch
Visualization orbit readout
Latitude
Unknown
Longitude
Unknown
Altitude
Unknown
Speed
Unknown
Apparent Right ascension
Unknown
Apparent Declination
Unknown
Sunlit
N/A
Visualization observer readout
Local Sidereal Time
06:45:05
Azimuth
Unknown
Elevation
Unknown
Doppler factor
Unknown
Orbital elements
Apogee altitude
582.674 km
Perigee altitude
522.577 km
Semi-major axis
6,930.762 km
Eccentricity
0.00434
Inclination
98.6487°
RAAN
69.138°
Arg. of periapsis
41.6376°
True anomaly
318.48491°
Mean anomaly
318.8134°
Eccentric anomaly
318.64929°
Mean motion
3.76159 °/min
Orbital period
95.7 mins
BSTAR
0.003332
Loading maneuver chart data...
Computing Atmospheric mass density...
Loading historical data...
Loading historical data...
Loading historical data...
Loading historical data...
Loading historical data...
Loading historical data...
Loading historical data...

Documentation

Showing up to 5 results
|